DW6451 Weather Reports


Display with metric or nautical units.
time (UTC)temp
F
wind
direction
speed
MPH
gust
MPH
rain 1hr
in
rain 24hr
in
rain mn
in
humidity
%
barometer
mb
20260902154515 77 350 0.0 3.0 0.00 0.00 0.00 62 1011.3
20260902153013 76 317 0.0 3.0 0.00 0.00 0.00 64 1011.3
20260902151511 76 305 0.0 3.0 0.00 0.00 0.00 65 1011.3
20260902150009 75 303 0.0 3.0 0.00 0.00 0.00 68 1011.4
20260902144508 75 303 0.0 3.0 0.00 0.00 0.00 70 1011.5
20260902143103 74 303 0.0 3.0 0.00 0.00 0.00 70 1011.7
20260902143000 74 303 0.0 3.0 0.00 0.00 0.00 71 1011.7
20260902141601 71 259 0.0 1.0 0.00 0.00 0.00 75 1011.8
20260902140057 69 259 0.0 3.0 0.00 0.00 0.00 80 1011.9
20260902134603 67 329 0.0 1.0 0.00 0.00 0.00 84 1012.0
20260902133049 66 329 0.0 1.0 0.00 0.00 0.00 87 1012.0
20260902131544 64 329 0.0 1.0 0.00 0.00 0.00 89 1012.0
20260902130044 63 329 0.0 1.0 0.00 0.00 0.00 91 1011.8
20260902124543 62 329 0.0 0.0 0.00 0.00 0.00 91 1011.5
20260902123042 61 329 0.0 0.0 0.00 0.00 0.00 90 1011.5
20260902121541 61 329 0.0 0.0 0.00 0.00 0.00 89 1011.4
20260902120018 62 329 0.0 0.0 0.00 0.00 0.00 88 1011.3
20260902114521 62 329 0.0 0.0 0.00 0.00 0.00 87 1011.2
20260902113021 63 329 0.0 0.0 0.00 0.00 0.00 86 1011.1
20260902111517 64 329 0.0 0.0 0.00 0.00 0.00 85 1011.0
20260902110016 64 329 0.0 0.0 0.00 0.00 0.00 84 1011.3
20260902104516 65 329 0.0 0.0 0.00 0.00 0.00 84 1011.2
20260902103013 65 329 0.0 0.0 0.00 0.00 0.00 85 1011.4
20260902101513 65 329 0.0 0.0 0.00 0.00 0.00 84 1011.6
20260902100015 65 329 0.0 0.0 0.00 0.00 0.00 83 1011.5
20260902094510 65 329 0.0 0.0 0.00 0.00 0.00 83 1011.3
20260902093010 65 329 0.0 0.0 0.00 0.00 0.00 83 1011.1
20260902091510 65 329 0.0 0.0 0.00 0.00 0.00 82 1011.1
20260902090008 65 329 0.0 0.0 0.00 0.00 0.00 82 1011.2
20260902084515 65 329 0.0 0.0 0.00 0.00 0.00 82 1011.1
20260902083006 66 329 0.0 1.0 0.00 0.00 0.00 82 1011.0
20260902081504 66 329 0.0 0.0 0.00 0.00 0.00 81 1010.6
20260902080002 66 329 0.0 0.0 0.00 0.00 0.00 81 1010.7
20260902074502 66 329 0.0 0.0 0.00 0.00 0.00 80 1010.9
20260902073001 66 329 0.0 0.0 0.00 0.00 0.00 80 1011.5
20260902071600 67 329 0.0 0.0 0.00 0.00 0.00 80 1011.1
20260902070059 67 329 0.0 0.0 0.00 0.00 0.00 79 1010.9
20260902064558 67 329 0.0 0.0 0.00 0.00 0.00 79 1010.8
20260902063114 67 329 0.0 0.0 0.00 0.00 0.00 78 1010.9
20260902061556 67 329 0.0 0.0 0.00 0.00 0.00 78 1011.3
20260902060107 67 329 0.0 0.0 0.00 0.00 0.00 78 1011.2
20260902054606 67 329 0.0 0.0 0.00 0.00 0.00 78 1010.9
20260902053053 67 329 0.0 0.0 0.00 0.00 0.00 77 1011.2
20260902051557 67 329 0.0 0.0 0.00 0.00 0.00 77 1011.3
20260902050050 67 329 0.0 0.0 0.00 0.00 0.00 76 1011.3
20260902044549 67 329 0.0 0.0 0.00 0.00 0.00 75 1011.4
20260902043106 67 329 0.0 0.0 0.00 0.00 0.00 74 1011.4
20260902041603 68 329 0.0 0.0 0.00 0.00 0.00 73 1011.2
20260902040048 68 329 0.0 0.0 0.00 0.00 0.00 72 1011.1
20260902034551 69 329 0.0 0.0 0.00 0.00 0.00 70 1010.9
20260902033051 69 329 0.0 0.0 0.00 0.00 0.00 69 1010.8
20260902031546 70 329 0.0 0.0 0.00 0.00 0.00 68 1010.9
20260902030049 70 329 0.0 0.0 0.00 0.00 0.00 67 1010.9
20260902024549 70 329 0.0 1.0 0.00 0.00 0.00 66 1010.8
20260902023044 71 329 0.0 0.0 0.00 0.00 0.00 65 1010.9
20260902021547 71 329 0.0 0.0 0.00 0.00 0.00 63 1010.8
20260902020045 72 329 0.0 0.0 0.00 0.00 0.00 62 1010.6
20260902014552 73 329 0.0 0.0 0.00 0.00 0.00 60 1010.5
20260902013051 74 329 0.0 0.0 0.00 0.00 0.00 58 1010.4
20260902011541 75 329 0.0 0.0 0.00 0.00 0.00 56 1010.2
20260902010050 77 329 0.0 0.0 0.00 0.00 0.00 54 1010.2
20260902004540 77 329 0.0 1.0 0.00 0.00 0.00 53 1009.8
20260902003113 78 329 0.0 1.0 0.00 0.00 0.00 51 1010.0
20260902001539 79 329 0.0 0.0 0.00 0.00 0.00 49 1009.9
20260902000039 80 329 0.0 1.0 0.00 0.00 0.00 49 1009.8
20260901234539 81 329 0.0 1.0 0.00 0.00 0.00 48 1009.7
20260901233038 81 329 0.0 1.0 0.00 0.00 0.00 47 1009.5
20260901231543 82 329 0.0 1.0 0.00 0.00 0.00 44 1009.4
20260901230036 83 337 0.0 4.0 0.00 0.00 0.00 43 1009.4
20260901224536 83 350 0.0 4.0 0.00 0.00 0.00 42 1009.3
20260901223035 84 256 1.0 6.0 0.00 0.00 0.00 41 1009.3
20260901221540 85 194 1.0 6.0 0.00 0.00 0.00 40 1009.4
20260901220040 86 279 1.0 7.0 0.00 0.00 0.00 40 1009.4
20260901214538 86 290 1.0 9.0 0.00 0.00 0.00 38 1009.3
20260901213036 87 348 3.0 7.0 0.00 0.00 0.00 38 1009.3
20260901211533 87 263 1.0 7.0 0.00 0.00 0.00 39 1009.2
20260901210034 87 340 2.0 8.0 0.00 0.00 0.00 38 1009.1
20260901204533 87 252 1.0 8.0 0.00 0.00 0.00 37 1009.0
20260901203036 89 297 2.0 7.0 0.00 0.00 0.00 35 1009.0
20260901201530 89 330 2.0 7.0 0.00 0.00 0.00 34 1009.0
20260901200030 89 295 4.0 9.0 0.00 0.00 0.00 35 1009.1
20260901194527 89 109 2.0 7.0 0.00 0.00 0.00 34 1009.3
20260901193025 89 184 3.0 8.0 0.00 0.00 0.00 37 1009.3
20260901191533 89 327 2.0 6.0 0.00 0.00 0.00 37 1009.5
20260901190022 89 338 1.0 8.0 0.00 0.00 0.00 38 1009.6
20260901184521 89 348 1.0 8.0 0.00 0.00 0.00 40 1009.8
20260901183015 88 310 1.0 8.0 0.00 0.00 0.00 40 1010.0
20260901181514 87 332 2.0 9.0 0.00 0.00 0.00 40 1010.2
20260901180012 87 24 0.0 6.0 0.00 0.00 0.00 43 1010.4
20260901174510 86 342 2.0 6.0 0.00 0.00 0.00 43 1010.8
20260901173007 86 192 1.0 5.0 0.00 0.00 0.00 44 1010.9
20260901171507 85 314 2.0 7.0 0.00 0.00 0.00 46 1011.0
20260901170003 84 47 0.0 3.0 0.00 0.00 0.00 47 1011.1
20260901164615 84 220 0.0 5.0 0.00 0.00 0.00 52 1011.4
20260901163114 82 221 0.0 3.0 0.00 0.00 0.00 53 1011.4
20260901161552 81 311 0.0 5.0 0.00 0.00 0.00 56 1011.5
20260901160051 81 327 0.0 4.0 0.00 0.00 0.00 57 1011.7